Miscellaneous Local Product
Issued by NWS North Platte, NE

Home | Current Version | Previous Version | Graphics & Text | Print | Product List | Glossary On
Versions: 1 2 3 4 5 6 7 8 9 10 11 12 13 14 15 16 17 18 19 20 21 22 23 24 25 26 27 28 29 30 31 32 33 34 35 36 37 38 39 40 41 42 43 44 45 46 47 48 49 50
000
AXUS43 KLBF 012010
MISLBF


WESTERN AND NORTH CENTRAL NEBRASKA HOURLY WEATHER ROUNDUP
NATIONAL WEATHER SERVICE NORTH PLATTE NE
300 PM CDT WED JUL 01 2015

***STATIONS NOT REPORTING VARIABLES SUCH AS SKY/WEATHER OR
PRESSURE ARE PROVIDED BY THE NEBRASKA DEPARTMENT OF
ROADS...RAWS...AND APRS NETWORKS...AND ARE NOT UNDER
NATIONAL WEATHER SERVICE QUALITY CONTROL***

...OBSERVATIONS IN AND NEAR THE EASTERN PANHANDLE OF NEBRASKA...

CITY           SKY/WX    TMP DP  RH WIND       PRES   REMARKS
PINE RIDGE     SUNNY     85  61  44 N8        30.01S
CHADRON        SUNNY     89  61  38 N8        29.99S
ALLIANCE       SUNNY     88  53  30 VRB6      30.03S
SIDNEY         SUNNY     90  55  30 N8        30.07S
WHITECLAY        N/A     84  61  44 W8          N/A
CRESCENT LAKE    N/A     91  48  22 N12G18      N/A
BIG SPRINGS      N/A     93  58  30 NE3         N/A  HX  91
$$

...OBSERVATIONS IN NORTH CENTRAL NEBRASKA...

CITY           SKY/WX    TMP DP  RH WIND       PRES   REMARKS
VALENTINE      SUNNY     86  65  49 N9        29.93S
THEDFORD       SUNNY     88  62  41 N12G21    29.95S
AINSWORTH      MOSUNNY   85  66  52 N6        29.93S
O`NEILL        CLOUDY    77  67  70 CALM      29.93S
ORD            SUNNY     81  67  62 SE6       29.90F
BROKEN BOW     SUNNY     86  68  54 E3        29.92F
VALENTINE NWR    N/A     86  64  48 N13G20      N/A
SPRINGVIEW       N/A     84  69  59 E7          N/A
HALSEY           N/A     90  62  38 NW8G18      N/A  HX  90
BREWSTER         N/A     92  67  43 N9          N/A  HX  96
ROSE             N/A     94  79  62 SE6         N/A  HX 111
NEWPORT          N/A     82  68  63 CALM        N/A
SARGENT          N/A     82  67  60 CALM        N/A
CHAMBERS         N/A     83  68  59 CALM        N/A
EWING            N/A     81  71  70 SE3         N/A
$$

...OBSERVATIONS IN SOUTHWEST NEBRASKA AND FAR NORTHEAST COLORADO...

CITY           SKY/WX    TMP DP  RH WIND       PRES   REMARKS
WRAY           FAIR      98  47  17 NE6       30.01S HX  94
HOLYOKE        FAIR      97  50  20 N9        30.01S HX  94
IMPERIAL       SUNNY     95  57  27 NE10      29.97F HX  94
OGALLALA       SUNNY     92  54  27 NE7       29.98S HX  90
NORTH PLATTE   SUNNY     94  56  27 N10G22    29.92F HX  92
MCCOOK         MOSUNNY   95  61  32 NE8       29.91F HX  95
LEXINGTON      SUNNY     88  67  49 E5        29.92S HX  90
PAXTON           N/A     94  56  27 NW8         N/A  HX  92
GOTHENBURG       N/A     87  65  47 SE5         N/A
CALLAWAY         N/A     88  72  58 E8          N/A  HX  94
$$

...NORTH PLATTE AREA...

CITY           SKY/WX    TMP DP  RH WIND       PRES   REMARKS
AIRPORT        SUNNY     94  56  27 N10G22    29.92F HX  92
DOWNTOWN         N/A     92  56  29 N9G17       N/A  HX  90
HILLCREST        N/A     91  55  29 NE16        N/A
$$

...SOME WEATHER OBSERVATIONS FROM AROUND THE REGION...

CITY           SKY/WX    TMP DP  RH WIND       PRES   REMARKS
DENVER         MOSUNNY   88  50  27 E6        30.13F
LARAMIE        PTSUNNY   79  44  28 S7        30.27S
CHEYENNE       SUNNY     80  52  37 E7        30.19F
SCOTTSBLUFF    SUNNY     93  48  21 VRB3      30.03F
RAPID CITY     SUNNY     83  58  42 N25G31    30.00S
PIERRE         CLOUDY    78  65  63 N3        29.92R
WINNER         FAIR      86  66  51 N7        29.90S
SIOUX FALLS    CLOUDY    72  63  73 SE13      29.94F
OMAHA          MOSUNNY   83  69  62 NE14      29.86F
GRAND ISLAND   PTSUNNY   81  67  62 E6        29.91S
KANSAS CITY    PTSUNNY   84  73  69 S10       29.83S HX  90
WICHITA        LGT RAIN  91  68  46 SW6       29.78F HX  95
HAYS           SUNNY     97  61  30 N20       29.85R HX  97
LIBERAL        PTSUNNY   91  61  35 E5        29.93S HX  91
GOODLAND       SUNNY     95  51  22 N16G24    29.99F HX  92
$$



USA.gov is the U.S. government's official web portal to all federal, state and local government web resources and services.